Date String (YYYY-MM-DD hh:mm:ss) UTC,Instrument flags,Ambient pressure (hPa),Sample flow (lpm),Bypass flow (lpm),Sample temperature (°C),Ambient temperature (°C),ASC tube jacket temperature (°C),LED temperature (°C),Box temperature (°C),Sample RH (%),Span deviation,Mass concentration (μg/m³),Mass concentration (μg/m³),Mass concentration (μg/m³)
DateTimeUTC,F1_M11,P_M11,Q1_M11,Q2_M11,T1_M11,T2_M11,T3_M11,T4_M11,T5_M11,U1_M11,ZSPAN_M11,X2_M11,X0_M11,X1_M11
2022-06-12 13:00:00,,0823.3,4.99,0.00,29.6,27.4,00.0,38.4,31.3,21.6,0000.0,0005.03,0015.80,0003.50
2022-06-12 13:01:00,,0823.3,5.01,0.00,29.6,27.4,00.0,38.4,31.2,21.6,0000.0,0005.12,0016.38,0003.49
2022-06-12 13:02:00,,0823.4,5.00,0.00,29.5,27.4,00.0,38.4,31.2,22.1,0000.0,0005.10,0016.29,0003.49
2022-06-12 13:03:00,,0823.4,4.99,0.00,29.5,27.6,00.0,38.4,31.2,21.2,0000.0,0005.11,0016.36,0003.48
2022-06-12 13:04:00,,0823.3,5.01,0.00,29.4,27.7,00.0,38.4,31.2,21.5,0000.0,0005.19,0015.91,0003.47
2022-06-12 13:05:00,,0823.3,5.01,0.00,29.4,27.8,00.0,38.4,31.3,21.9,0000.0,0005.22,0016.51,0003.45
2022-06-12 13:06:00,,0823.3,5.00,0.00,29.4,27.9,00.0,38.4,31.3,21.4,0000.0,0005.25,0016.70,0003.45
2022-06-12 13:07:00,,0823.3,4.99,0.00,29.4,28.1,00.0,38.4,31.3,21.4,0000.0,0005.31,0016.02,0003.48
2022-06-12 13:08:00,,0823.3,5.00,0.00,29.4,28.2,00.0,38.4,31.3,21.1,0000.0,0005.41,0017.09,0003.53
2022-06-12 13:09:00,,0823.3,5.01,0.00,29.5,28.2,00.0,38.4,31.3,20.8,0000.0,0005.51,0016.86,0003.56
2022-06-12 13:10:00,,0823.4,5.00,0.00,29.5,28.3,00.0,38.4,31.4,21.5,0000.0,0005.56,0016.60,0003.57
2022-06-12 13:11:00,,0823.4,4.99,0.00,29.5,28.4,00.0,38.4,31.4,21.6,0000.0,0005.58,0016.68,0003.60
2022-06-12 13:12:00,,0823.4,5.00,0.00,29.5,28.5,00.0,38.4,31.4,21.7,0000.0,0005.53,0016.00,0003.61
2022-06-12 13:13:00,,0823.4,4.99,0.00,29.5,28.5,00.0,38.4,31.4,21.6,0000.0,0005.54,0015.56,0003.63
2022-06-12 13:14:00,,0823.4,5.01,0.00,29.5,28.6,00.0,38.4,31.5,21.1,0000.0,0005.55,0015.88,0003.65
2022-06-12 13:15:00,,0823.4,4.98,0.00,29.6,28.6,00.0,38.4,31.5,21.5,0000.0,0005.57,0016.07,0003.67
2022-06-12 13:16:00,,0823.4,5.00,0.00,29.6,28.7,00.0,38.4,31.5,21.9,0000.0,0005.59,0015.62,0003.70
2022-06-12 13:17:00,,0823.4,5.00,0.00,29.6,28.7,00.0,38.5,31.5,22.1,0000.0,0005.62,0016.28,0003.73
2022-06-12 13:18:00,,0823.4,4.98,0.00,29.6,28.8,00.0,38.5,31.6,21.9,0000.0,0005.62,0016.48,0003.74
2022-06-12 13:19:00,,0823.4,5.00,0.00,29.7,28.8,00.0,38.5,31.6,20.5,0000.0,0005.57,0015.54,0003.74
2022-06-12 13:20:00,,0823.4,5.01,0.00,29.7,28.8,00.0,38.5,31.6,21.4,0000.0,0005.54,0015.86,0003.75
2022-06-12 13:21:00,,0823.4,5.01,0.00,29.7,28.9,00.0,38.5,31.7,22.4,0000.0,0005.50,0016.07,0003.76
2022-06-12 13:22:00,,0823.4,5.01,0.00,29.7,28.9,00.0,38.5,31.7,22.9,0000.0,0005.47,0016.05,0003.76
2022-06-12 13:23:00,,0823.4,5.00,0.00,29.7,28.8,00.0,38.5,31.7,22.1,0000.0,0005.52,0016.34,0003.77
2022-06-12 13:24:00,,0823.3,4.99,0.00,29.7,28.1,00.0,38.5,31.5,21.0,0000.0,0005.52,0016.57,0003.78
2022-06-12 13:25:00,,0823.3,4.99,0.00,29.6,27.6,00.0,38.4,31.4,21.4,0000.0,0005.51,0016.60,0003.78
2022-06-12 13:26:00,,0823.3,5.01,0.00,29.6,27.5,00.0,38.4,31.3,20.9,0000.0,0005.42,0016.89,0003.77
2022-06-12 13:27:00,,0823.3,4.99,0.00,29.5,27.5,00.0,38.4,31.2,21.1,0000.0,0005.45,0017.40,0003.77
2022-06-12 13:28:00,,0823.3,5.00,0.00,29.5,27.6,00.0,38.4,31.2,20.7,0000.0,0005.47,0017.12,0003.77
2022-06-12 13:29:00,,0823.3,5.00,0.00,29.4,27.7,00.0,38.4,31.2,21.0,0000.0,0005.46,0017.29,0003.78
2022-06-12 13:30:00,,0823.3,4.99,0.00,29.4,27.8,00.0,38.4,31.3,21.6,0000.0,0005.53,0018.11,0003.79
2022-06-12 13:31:00,,0823.4,4.99,0.00,29.4,27.9,00.0,38.4,31.3,21.4,0000.0,0005.56,0017.96,0003.79
2022-06-12 13:32:00,,0823.4,5.00,0.00,29.4,28.0,00.0,38.4,31.3,21.8,0000.0,0005.56,0017.80,0003.79
2022-06-12 13:33:00,,0823.4,5.01,0.00,29.4,28.1,00.0,38.4,31.3,22.6,0000.0,0005.60,0018.35,0003.80
2022-06-12 13:34:00,,0823.3,5.00,0.00,29.5,28.2,00.0,38.4,31.4,22.9,0000.0,0005.58,0018.59,0003.79
2022-06-12 13:35:00,,0823.3,5.00,0.00,29.5,28.3,00.0,38.4,31.4,23.0,0000.0,0005.51,0018.75,0003.78
2022-06-12 13:36:00,,0823.3,5.00,0.00,29.5,28.4,00.0,38.4,31.4,23.8,0000.0,0005.49,0018.96,0003.80
2022-06-12 13:37:00,,0823.3,5.00,0.00,29.5,28.5,00.0,38.4,31.4,24.3,0000.0,0005.52,0018.97,0003.81
2022-06-12 13:38:00,,0823.4,5.00,0.00,29.5,28.5,00.0,38.4,31.4,23.5,0000.0,0005.52,0018.40,0003.83
2022-06-12 13:39:00,,0823.3,5.01,0.00,29.5,28.6,00.0,38.4,31.5,24.9,0000.0,0005.58,0018.17,0003.84
2022-06-12 13:40:00,,0823.4,5.00,0.00,29.6,28.6,00.0,38.4,31.5,24.8,0000.0,0005.60,0018.28,0003.85
2022-06-12 13:41:00,,0823.4,4.99,0.00,29.6,28.7,00.0,38.4,31.5,24.1,0000.0,0005.54,0018.02,0003.85
2022-06-12 13:42:00,,0823.4,4.99,0.00,29.6,28.7,00.0,38.4,31.5,23.7,0000.0,0005.52,0017.23,0003.86
2022-06-12 13:43:00,,0823.4,5.00,0.00,29.6,28.8,00.0,38.5,31.6,23.5,0000.0,0005.55,0016.99,0003.87
2022-06-12 13:44:00,,0823.4,5.01,0.00,29.6,28.8,00.0,38.5,31.6,24.4,0000.0,0005.52,0016.31,0003.88
2022-06-12 13:45:00,,0823.4,5.00,0.00,29.7,28.8,00.0,38.5,31.6,23.5,0000.0,0005.55,0017.02,0003.89
2022-06-12 13:46:00,,0823.4,5.00,0.00,29.7,28.9,00.0,38.5,31.7,24.0,0000.0,0005.64,0017.75,0003.92
2022-06-12 13:47:00,,0823.4,5.00,0.00,29.7,28.8,00.0,38.5,31.7,23.8,0000.0,0005.63,0017.33,0003.91
2022-06-12 13:48:00,,0823.4,5.00,0.00,29.7,28.2,00.0,38.4,31.5,24.6,0000.0,0005.64,0016.51,0003.91
2022-06-12 13:49:00,,0823.3,4.99,0.00,29.6,27.6,00.0,38.4,31.3,24.4,0000.0,0005.62,0016.74,0003.89
2022-06-12 13:50:00,,0823.4,5.01,0.00,29.5,27.4,00.0,38.4,31.2,24.8,0000.0,0005.57,0016.52,0003.88
2022-06-12 13:51:00,,0823.4,5.01,0.00,29.5,27.5,00.0,38.4,31.2,24.1,0000.0,0005.62,0016.35,0003.90
2022-06-12 13:52:00,,0823.4,4.99,0.00,29.4,27.5,00.0,38.4,31.2,24.1,0000.0,0005.65,0016.34,0003.91
2022-06-12 13:53:00,,0823.4,4.99,0.00,29.4,27.7,00.0,38.4,31.2,23.9,0000.0,0005.63,0016.36,0003.91
2022-06-12 13:54:00,,0823.4,5.01,0.00,29.4,27.8,00.0,38.4,31.2,24.8,0000.0,0005.65,0016.43,0003.91
2022-06-12 13:55:00,,0823.3,5.01,0.00,29.4,27.9,00.0,38.3,31.3,25.2,0000.0,0005.65,0016.45,0003.91
2022-06-12 13:56:00,,0823.3,4.99,0.00,29.4,28.0,00.0,38.3,31.3,25.0,0000.0,0005.61,0015.03,0003.92
2022-06-12 13:57:00,,0823.3,5.00,0.00,29.4,28.1,00.0,38.3,31.3,26.5,0000.0,0005.59,0014.10,0003.90
2022-06-12 13:58:00,,0823.3,5.00,0.00,29.4,28.2,00.0,38.3,31.3,27.5,0000.0,0005.62,0014.07,0003.90
2022-06-12 13:59:00,,0823.3,5.01,0.00,29.5,28.3,00.0,38.3,31.4,26.7,0000.0,0005.65,0014.07,0003.90
